Zurück zum Katalog

STARLINK-32943

AktivKommunikationVLEO
NORAD 63023·PAYLOAD·🇺🇸 United States

Gestartet Feb 15, 2025 von Cape Canaveral Space Force Station

Loading…

Nächste Überflüge (nächste 24 Stunden)

TLE

AktuellSource: CelesTrak SupGP

Epoche: Sep 14, 2026, 20:51 UTC

1 63023C 25032U   26257.86923611  .00002140  00000+0  77525-4 0  2577
2 63023  43.0017 347.5032 0001606 269.2852 119.8852 15.27575283    12

Verfolge STARLINK-32943 in Echtzeit mit AllMySat

Download on the App Store